AXM191 VNKT-VYMD

Flight info

Callsign AXM191
Flight time 1h 42m
Altitude 39000
Route IGRIS1D AHALE R344 BIRAT A467 KHR R344 RAJ G463 CTG B465 AVDAX DCT LEGOB FR1 MIA
Aircraft A20N/M-SDE2E3FGHIRWXY/LB1

Departure

Time 2026-05-05 01:07
Airport Tribhuvan International Airport (VNKT)

Arrival

Time 2026-05-05 02:49
Airport Mandalay International Airport (VYMD)
Time Latitude Longitude Altitude Speed Heading
2026-05-05 00:10 27.69994 85.35832 4374 ft 0 kts 292°
2026-05-05 00:45 27.69989 85.35844 4357 ft 4 kts 292°
2026-05-05 00:45 27.69979 85.35872 4357 ft 4 kts 292°
2026-05-05 00:46 27.69970 85.35896 4364 ft 4 kts 286°
2026-05-05 00:46 27.69968 85.35925 4357 ft 4 kts 248°
2026-05-05 00:46 27.69979 85.35941 4360 ft 0 kts 202°
2026-05-05 00:50 27.69966 85.35935 4358 ft 5 kts 202°
2026-05-05 00:50 27.69921 85.35915 4372 ft 9 kts 202°
2026-05-05 00:50 27.69849 85.35882 4358 ft 13 kts 202°
2026-05-05 00:50 27.69815 85.35866 4369 ft 0 kts 201°
2026-05-05 00:51 27.69798 85.35859 4355 ft 5 kts 201°
2026-05-05 00:51 27.69750 85.35838 4352 ft 10 kts 201°
2026-05-05 00:51 27.69672 85.35802 4361 ft 14 kts 202°
2026-05-05 00:52 27.69573 85.35757 4361 ft 17 kts 202°
2026-05-05 00:52 27.69449 85.35699 4349 ft 21 kts 203°
2026-05-05 00:52 27.69305 85.35632 4343 ft 19 kts 202°
2026-05-05 00:52 27.69174 85.35571 4346 ft 19 kts 201°
2026-05-05 00:53 27.69089 85.35561 4347 ft 0 kts 146°
2026-05-05 00:53 27.69086 85.35562 4346 ft 2 kts 146°
2026-05-05 00:53 27.69060 85.35587 4348 ft 7 kts 135°
2026-05-05 00:53 27.69007 85.35617 4344 ft 10 kts 182°
2026-05-05 00:54 27.68932 85.35576 4346 ft 14 kts 204°
2026-05-05 00:54 27.68828 85.35532 4343 ft 18 kts 200°
2026-05-05 00:54 27.68697 85.35476 4339 ft 22 kts 201°
2026-05-05 00:54 27.68652 85.35456 4338 ft 0 kts 201°
2026-05-05 00:55 27.68650 85.35455 4338 ft 1 kts 201°
2026-05-05 00:55 27.68629 85.35446 4337 ft 5 kts 201°
2026-05-05 00:55 27.68582 85.35425 4338 ft 9 kts 201°
2026-05-05 00:55 27.68572 85.35420 4338 ft 1 kts 201°
2026-05-05 00:56 27.68554 85.35413 4337 ft 5 kts 201°
2026-05-05 00:56 27.68509 85.35390 4337 ft 9 kts 213°
2026-05-05 00:56 27.68460 85.35325 4335 ft 13 kts 216°
2026-05-05 00:56 27.68413 85.35339 4334 ft 3 kts 62°
2026-05-05 00:57 27.68439 85.35360 4335 ft 2 kts 22°
2026-05-05 01:06 27.68459 85.35369 4336 ft 20 kts 22°
2026-05-05 01:06 27.68819 85.35532 4342 ft 89 kts 22°
2026-05-05 01:06 27.69567 85.35869 4354 ft 142 kts 22°
2026-05-05 01:06 27.70560 85.36323 4794 ft 152 kts 22°
2026-05-05 01:07 27.71548 85.36769 5294 ft 159 kts 21°
2026-05-05 01:07 27.72595 85.37346 5536 ft 176 kts 36°
2026-05-05 01:07 27.73486 85.38383 5742 ft 195 kts 57°
2026-05-05 01:07 27.74010 85.39854 5918 ft 211 kts 80°
2026-05-05 01:08 27.74049 85.41580 6045 ft 228 kts 91°
2026-05-05 01:08 27.73947 85.43434 6178 ft 246 kts 103°
2026-05-05 01:08 27.73250 85.45187 6695 ft 247 kts 126°
2026-05-05 01:08 27.71995 85.46499 7256 ft 249 kts 149°
2026-05-05 01:09 27.70404 85.47310 7693 ft 256 kts 157°
2026-05-05 01:09 27.68721 85.48089 8036 ft 265 kts 158°
2026-05-05 01:09 27.67027 85.49001 8172 ft 281 kts 148°
2026-05-05 01:09 27.65446 85.50358 8480 ft 288 kts 136°
2026-05-05 01:10 27.64128 85.52072 8924 ft 290 kts 124°
2026-05-05 01:10 27.63136 85.54058 9365 ft 292 kts 112°
2026-05-05 01:10 27.62491 85.56236 9810 ft 294 kts 105°
2026-05-05 01:10 27.61908 85.58455 10179 ft 299 kts 106°
2026-05-05 01:11 27.61287 85.60745 10278 ft 312 kts 107°
2026-05-05 01:11 27.60639 85.63135 10387 ft 324 kts 107°
2026-05-05 01:11 27.59972 85.65605 10455 ft 332 kts 106°
2026-05-05 01:11 27.59298 85.68113 10570 ft 336 kts 107°
2026-05-05 01:12 27.58457 85.70574 10750 ft 338 kts 114°
2026-05-05 01:12 27.57352 85.72920 10911 ft 340 kts 121°
2026-05-05 01:12 27.55998 85.75110 11086 ft 342 kts 128°
2026-05-05 01:12 27.54417 85.77112 11250 ft 343 kts 135°
2026-05-05 01:13 27.52668 85.78907 11401 ft 345 kts 139°
2026-05-05 01:13 27.50862 85.80687 11564 ft 346 kts 139°
2026-05-05 01:13 27.49051 85.82478 11804 ft 344 kts 139°
2026-05-05 01:13 27.47300 85.84221 12515 ft 328 kts 140°
2026-05-05 01:14 27.45622 85.85901 13144 ft 321 kts 140°
2026-05-05 01:14 27.43938 85.87586 13478 ft 327 kts 140°
2026-05-05 01:14 27.42217 85.89308 14119 ft 339 kts 140°
2026-05-05 01:14 27.40389 85.91132 14318 ft 364 kts 140°
2026-05-05 01:15 27.38439 85.93079 14609 ft 383 kts 140°
2026-05-05 01:15 27.36430 85.95088 15272 ft 388 kts 140°
2026-05-05 01:15 27.34411 85.97110 16046 ft 391 kts 140°
2026-05-05 01:15 27.32366 85.99153 16723 ft 396 kts 141°
2026-05-05 01:16 27.30305 86.01210 17500 ft 398 kts 141°
2026-05-05 01:16 27.28223 86.03287 18179 ft 403 kts 141°
2026-05-05 01:16 27.26115 86.05388 18822 ft 406 kts 141°
2026-05-05 01:16 27.23993 86.07503 19444 ft 409 kts 142°
2026-05-05 01:17 27.21852 86.09636 20036 ft 413 kts 142°
2026-05-05 01:17 27.19766 86.11882 20677 ft 419 kts 135°
2026-05-05 01:17 27.17975 86.14490 21221 ft 425 kts 127°
2026-05-05 01:17 27.16283 86.17239 21800 ft 429 kts 128°
2026-05-05 01:18 27.14600 86.19962 22348 ft 433 kts 128°
2026-05-05 01:18 27.12867 86.22757 22929 ft 437 kts 128°
2026-05-05 01:18 27.11122 86.25565 23552 ft 438 kts 128°
2026-05-05 01:18 27.09372 86.28377 24088 ft 440 kts 128°
2026-05-05 01:19 27.07611 86.31203 24566 ft 443 kts 128°
2026-05-05 01:19 27.05834 86.34052 25003 ft 446 kts 129°
2026-05-05 01:19 27.04050 86.36911 25454 ft 449 kts 129°
2026-05-05 01:19 27.02256 86.39784 25891 ft 452 kts 129°
2026-05-05 01:20 27.00447 86.42680 26332 ft 454 kts 129°
2026-05-05 01:20 26.98630 86.45587 26792 ft 455 kts 129°
2026-05-05 01:20 26.96803 86.48507 27182 ft 459 kts 130°
2026-05-05 01:20 26.94961 86.51447 27585 ft 462 kts 130°
2026-05-05 01:21 26.93129 86.54373 27938 ft 466 kts 130°
2026-05-05 01:21 26.91267 86.57346 28390 ft 467 kts 130°
2026-05-05 01:21 26.89389 86.60345 28643 ft 473 kts 130°
2026-05-05 01:21 26.87488 86.63373 29011 ft 475 kts 131°
2026-05-05 01:22 26.85579 86.66408 29404 ft 478 kts 131°
2026-05-05 01:22 26.83657 86.69451 29780 ft 480 kts 131°
2026-05-05 01:22 26.81716 86.72516 30100 ft 483 kts 132°
2026-05-05 01:22 26.79766 86.75590 30416 ft 486 kts 132°
2026-05-05 01:23 26.77803 86.78682 30709 ft 488 kts 132°
2026-05-05 01:23 26.75823 86.81796 30999 ft 491 kts 132°
2026-05-05 01:23 26.73841 86.84916 31349 ft 493 kts 132°
2026-05-05 01:23 26.71854 86.88043 31743 ft 493 kts 132°
2026-05-05 01:24 26.69891 86.91129 32131 ft 492 kts 133°
2026-05-05 01:24 26.67909 86.94245 32506 ft 492 kts 133°
2026-05-05 01:24 26.65923 86.97364 32858 ft 492 kts 133°
2026-05-05 01:24 26.63936 87.00481 33223 ft 492 kts 133°
2026-05-05 01:25 26.61950 87.03594 33574 ft 492 kts 133°
2026-05-05 01:25 26.59959 87.06712 33902 ft 492 kts 133°
2026-05-05 01:25 26.57969 87.09826 34178 ft 492 kts 133°
2026-05-05 01:25 26.55980 87.12937 34454 ft 492 kts 133°
2026-05-05 01:26 26.53991 87.16045 34723 ft 492 kts 133°
2026-05-05 01:26 26.51999 87.19155 34946 ft 493 kts 133°
2026-05-05 01:26 26.49962 87.22222 35183 ft 487 kts 139°
2026-05-05 01:26 26.47575 87.24823 35407 ft 473 kts 150°
2026-05-05 01:27 26.44854 87.26779 35648 ft 459 kts 162°
2026-05-05 01:27 26.41937 87.28115 35906 ft 450 kts 169°
2026-05-05 01:27 26.38967 87.29205 36160 ft 448 kts 171°
2026-05-05 01:27 26.37002 87.29914 36328 ft 449 kts 170°
2026-05-05 01:28 26.34034 87.30947 36578 ft 445 kts 173°
2026-05-05 01:28 26.30083 87.32215 36889 ft 447 kts 172°
2026-05-05 01:28 26.27103 87.33213 37119 ft 447 kts 172°
2026-05-05 01:28 26.24126 87.34226 37355 ft 447 kts 171°
2026-05-05 01:29 26.21148 87.35244 37556 ft 448 kts 171°
2026-05-05 01:29 26.18171 87.36262 37786 ft 448 kts 171°
2026-05-05 01:29 26.16193 87.36938 37939 ft 448 kts 171°
2026-05-05 01:29 26.13219 87.37955 38167 ft 447 kts 171°
2026-05-05 01:30 26.10238 87.38971 38387 ft 447 kts 171°
2026-05-05 01:30 26.07266 87.39984 38597 ft 447 kts 171°
2026-05-05 01:30 26.04292 87.40997 38774 ft 447 kts 171°
2026-05-05 01:30 26.01318 87.42009 38913 ft 447 kts 171°
2026-05-05 01:31 25.95370 87.44034 38919 ft 446 kts 171°
2026-05-05 01:31 25.89438 87.46049 38918 ft 446 kts 171°
2026-05-05 01:32 25.83482 87.48070 38917 ft 447 kts 171°
2026-05-05 01:32 25.77579 87.50073 38913 ft 446 kts 171°
2026-05-05 01:33 25.71629 87.52089 38916 ft 447 kts 171°
2026-05-05 01:33 25.65680 87.54103 38914 ft 447 kts 170°
2026-05-05 01:34 25.59951 87.57033 38909 ft 463 kts 154°
2026-05-05 01:34 25.54806 87.61438 38901 ft 469 kts 148°
2026-05-05 01:35 25.49717 87.65982 38905 ft 469 kts 148°
2026-05-05 01:35 25.44625 87.70508 38908 ft 470 kts 148°
2026-05-05 01:36 25.39522 87.75037 38896 ft 471 kts 148°
2026-05-05 01:36 25.34433 87.79550 38900 ft 471 kts 148°
2026-05-05 01:37 25.29306 87.84091 38909 ft 472 kts 148°
2026-05-05 01:37 25.24177 87.88629 38913 ft 473 kts 148°
2026-05-05 01:38 25.19035 87.93174 38919 ft 473 kts 148°
2026-05-05 01:38 25.13891 87.97715 38923 ft 474 kts 148°
2026-05-05 01:39 25.08744 88.02255 38909 ft 472 kts 148°
2026-05-05 01:39 25.03615 88.06773 38908 ft 472 kts 148°
2026-05-05 01:40 24.98472 88.11296 38910 ft 475 kts 148°
2026-05-05 01:40 24.93293 88.15846 38910 ft 476 kts 148°
2026-05-05 01:41 24.88135 88.20407 38908 ft 476 kts 147°
2026-05-05 01:41 24.83081 88.25137 38906 ft 476 kts 146°
2026-05-05 01:42 24.78040 88.29871 38903 ft 476 kts 146°
2026-05-05 01:42 24.72982 88.34582 38906 ft 476 kts 146°
2026-05-05 01:43 24.67955 88.39249 38898 ft 476 kts 146°
2026-05-05 01:43 24.62899 88.43936 38901 ft 476 kts 146°
2026-05-05 01:44 24.57837 88.48626 38895 ft 476 kts 146°
2026-05-05 01:44 24.52764 88.53322 38891 ft 477 kts 146°
2026-05-05 01:45 24.47685 88.58018 38897 ft 478 kts 145°
2026-05-05 01:45 24.45313 88.60616 38897 ft 486 kts 134°
2026-05-05 01:45 24.43380 88.63699 38895 ft 493 kts 122°
2026-05-05 01:46 24.40794 88.70730 38895 ft 499 kts 113°
2026-05-05 01:46 24.38404 88.77895 38903 ft 500 kts 114°
2026-05-05 01:47 24.36010 88.85016 38923 ft 500 kts 113°
2026-05-05 01:47 24.33594 88.92184 38925 ft 501 kts 113°
2026-05-05 01:48 24.31172 88.99362 38908 ft 501 kts 113°
2026-05-05 01:48 24.28758 89.06506 38909 ft 499 kts 113°
2026-05-05 01:49 24.26335 89.13658 38911 ft 500 kts 113°
2026-05-05 01:49 24.23914 89.20791 38902 ft 500 kts 113°
2026-05-05 01:50 24.21486 89.27935 38899 ft 499 kts 113°
2026-05-05 01:50 24.19062 89.35053 38902 ft 498 kts 113°
2026-05-05 01:51 24.16655 89.42111 38887 ft 497 kts 113°
2026-05-05 01:51 24.14233 89.49199 38883 ft 497 kts 113°
2026-05-05 01:52 24.11809 89.56280 38880 ft 497 kts 113°
2026-05-05 01:52 24.09297 89.63316 38877 ft 496 kts 115°
2026-05-05 01:53 24.06733 89.70330 38867 ft 496 kts 115°
2026-05-05 01:53 24.04184 89.77336 38889 ft 496 kts 115°
2026-05-05 01:54 24.01638 89.84346 38885 ft 496 kts 115°
2026-05-05 01:54 23.99087 89.91360 38892 ft 496 kts 115°
2026-05-05 01:55 23.96532 89.98375 38890 ft 497 kts 115°
2026-05-05 01:55 23.94140 90.05462 38910 ft 498 kts 112°
2026-05-05 01:56 23.91849 90.12609 38914 ft 498 kts 112°
2026-05-05 01:56 23.89527 90.19735 38913 ft 498 kts 112°
2026-05-05 01:57 23.87184 90.26861 38912 ft 498 kts 112°
2026-05-05 01:57 23.84842 90.33969 38911 ft 496 kts 112°
2026-05-05 01:58 23.81958 90.40747 38913 ft 490 kts 129°
2026-05-05 01:58 23.79815 90.43549 38913 ft 483 kts 140°
2026-05-05 01:58 23.77285 90.45937 38912 ft 480 kts 146°
2026-05-05 01:59 23.72123 90.50571 38914 ft 481 kts 145°
2026-05-05 01:59 23.66955 90.55225 38914 ft 480 kts 145°
2026-05-05 02:00 23.61821 90.59844 38903 ft 478 kts 145°
2026-05-05 02:00 23.56695 90.64449 38912 ft 477 kts 145°
2026-05-05 02:01 23.51541 90.69071 38920 ft 481 kts 145°
2026-05-05 02:01 23.46410 90.73674 38919 ft 480 kts 145°
2026-05-05 02:02 23.41257 90.78296 38914 ft 478 kts 145°
2026-05-05 02:02 23.36145 90.82877 38919 ft 475 kts 145°
2026-05-05 02:03 23.31029 90.87456 38919 ft 476 kts 145°
2026-05-05 02:03 23.25920 90.92034 38919 ft 476 kts 145°
2026-05-05 02:04 23.20806 90.96612 38922 ft 476 kts 145°
2026-05-05 02:04 23.15699 91.01198 38923 ft 477 kts 144°
2026-05-05 02:05 23.10630 91.05847 38924 ft 477 kts 144°
2026-05-05 02:05 23.05579 91.10477 38925 ft 472 kts 144°
2026-05-05 02:06 23.00542 91.15076 38917 ft 473 kts 144°
2026-05-05 02:06 22.95508 91.19663 38928 ft 472 kts 144°
2026-05-05 02:07 22.90470 91.24250 38928 ft 472 kts 144°
2026-05-05 02:07 22.85470 91.28799 38927 ft 472 kts 144°
2026-05-05 02:08 22.80437 91.33375 38931 ft 472 kts 144°
2026-05-05 02:08 22.75407 91.37942 38932 ft 471 kts 144°
2026-05-05 02:09 22.70383 91.42499 38932 ft 471 kts 144°
2026-05-05 02:09 22.65358 91.47054 38929 ft 471 kts 144°
2026-05-05 02:10 22.60331 91.51605 38931 ft 471 kts 144°
2026-05-05 02:10 22.55310 91.56143 38931 ft 470 kts 144°
2026-05-05 02:11 22.50284 91.60679 38931 ft 470 kts 144°
2026-05-05 02:11 22.45254 91.65215 38932 ft 471 kts 144°
2026-05-05 02:12 22.37712 91.72008 38940 ft 470 kts 144°
2026-05-05 02:13 22.32680 91.76535 38938 ft 470 kts 144°
2026-05-05 02:13 22.28068 91.81559 38935 ft 478 kts 126°
2026-05-05 02:13 22.26471 91.84715 38930 ft 482 kts 114°
2026-05-05 02:14 22.25481 91.88177 38932 ft 485 kts 102°
2026-05-05 02:14 22.24853 91.95402 38937 ft 486 kts 95°
2026-05-05 02:15 22.24345 92.02686 38942 ft 487 kts 95°
2026-05-05 02:15 22.23920 92.08794 38945 ft 487 kts 95°
2026-05-05 02:16 22.23411 92.16095 38955 ft 488 kts 95°
2026-05-05 02:16 22.22902 92.23351 38958 ft 488 kts 95°
2026-05-05 02:17 22.22385 92.30658 38965 ft 489 kts 95°
2026-05-05 02:17 22.21864 92.37972 38966 ft 489 kts 95°
2026-05-05 02:18 22.21341 92.45271 38960 ft 487 kts 95°
2026-05-05 02:18 22.20816 92.52549 38964 ft 486 kts 95°
2026-05-05 02:19 22.20288 92.59831 38970 ft 486 kts 95°
2026-05-05 02:19 22.19756 92.67113 38969 ft 487 kts 95°
2026-05-05 02:20 22.19224 92.74362 38968 ft 488 kts 95°
2026-05-05 02:20 22.18684 92.81661 38989 ft 489 kts 95°
2026-05-05 02:21 22.18141 92.88971 38993 ft 489 kts 95°
2026-05-05 02:21 22.17594 92.96283 38998 ft 489 kts 95°
2026-05-05 02:22 22.17045 93.03575 38993 ft 486 kts 95°
2026-05-05 02:22 22.16495 93.10851 39011 ft 487 kts 96°
2026-05-05 02:23 22.15941 93.18119 39009 ft 487 kts 96°
2026-05-05 02:23 22.15382 93.25412 39027 ft 487 kts 96°
2026-05-05 02:24 22.14824 93.32663 39011 ft 484 kts 96°
2026-05-05 02:24 22.14263 93.39895 39024 ft 485 kts 96°
2026-05-05 02:25 22.13696 93.47171 39025 ft 486 kts 96°
2026-05-05 02:25 22.13130 93.54386 39020 ft 487 kts 96°
2026-05-05 02:26 22.12556 93.61652 39017 ft 486 kts 96°
2026-05-05 02:26 22.11980 93.68922 39018 ft 486 kts 96°
2026-05-05 02:27 22.11402 93.76172 39014 ft 486 kts 96°
2026-05-05 02:27 22.10819 93.83448 39009 ft 488 kts 96°
2026-05-05 02:28 22.10230 93.90735 38998 ft 486 kts 96°
2026-05-05 02:28 22.09642 93.97995 38825 ft 484 kts 96°
2026-05-05 02:28 22.09347 94.01617 38229 ft 486 kts 96°
2026-05-05 02:29 22.09048 94.05268 37330 ft 491 kts 96°
2026-05-05 02:29 22.08745 94.08968 36331 ft 498 kts 96°
2026-05-05 02:29 22.08438 94.12711 35306 ft 505 kts 96°
2026-05-05 02:29 22.08129 94.16453 34384 ft 510 kts 96°
2026-05-05 02:30 22.07811 94.20317 33448 ft 512 kts 96°
2026-05-05 02:30 22.07497 94.24109 32456 ft 516 kts 96°
2026-05-05 02:30 22.07177 94.27969 31478 ft 518 kts 96°
2026-05-05 02:30 22.06850 94.31890 30583 ft 518 kts 96°
2026-05-05 02:31 22.06529 94.35740 29897 ft 514 kts 96°
2026-05-05 02:31 22.06214 94.39505 29272 ft 507 kts 96°
2026-05-05 02:31 22.05899 94.43272 28636 ft 500 kts 96°
2026-05-05 02:31 22.05585 94.46989 28007 ft 495 kts 96°
2026-05-05 02:32 22.05275 94.50662 27388 ft 489 kts 96°
2026-05-05 02:32 22.04968 94.54293 26768 ft 484 kts 96°
2026-05-05 02:32 22.04663 94.57885 26134 ft 479 kts 96°
2026-05-05 02:32 22.04359 94.61445 25507 ft 475 kts 96°
2026-05-05 02:33 22.04058 94.64979 24876 ft 472 kts 96°
2026-05-05 02:33 22.03758 94.68475 24260 ft 468 kts 96°
2026-05-05 02:33 22.03460 94.71956 23652 ft 464 kts 96°
2026-05-05 02:33 22.03161 94.75420 22931 ft 461 kts 96°
2026-05-05 02:34 22.02872 94.78779 22401 ft 453 kts 96°
2026-05-05 02:34 22.02581 94.82141 21794 ft 448 kts 96°
2026-05-05 02:34 22.02293 94.85466 21193 ft 443 kts 96°
2026-05-05 02:34 22.02009 94.88751 20557 ft 438 kts 96°
2026-05-05 02:35 22.01728 94.92004 19984 ft 433 kts 96°
2026-05-05 02:35 22.01447 94.95224 19384 ft 429 kts 97°
2026-05-05 02:35 22.01034 94.98394 18787 ft 425 kts 99°
2026-05-05 02:35 22.00596 95.01527 18191 ft 421 kts 99°
2026-05-05 02:36 22.00173 95.04630 17573 ft 416 kts 99°
2026-05-05 02:36 21.99757 95.07690 16992 ft 410 kts 99°
2026-05-05 02:36 21.99344 95.10712 16418 ft 405 kts 99°
2026-05-05 02:36 21.98934 95.13696 15846 ft 401 kts 99°
2026-05-05 02:37 21.98525 95.16655 15279 ft 397 kts 99°
2026-05-05 02:37 21.98119 95.19582 14680 ft 394 kts 99°
2026-05-05 02:37 21.97717 95.22485 14118 ft 391 kts 99°
2026-05-05 02:37 21.97316 95.25367 13547 ft 387 kts 99°
2026-05-05 02:38 21.96919 95.28216 13017 ft 382 kts 99°
2026-05-05 02:38 21.96527 95.31031 12475 ft 378 kts 99°
2026-05-05 02:38 21.96139 95.33817 11934 ft 374 kts 99°
2026-05-05 02:38 21.95754 95.36575 11401 ft 370 kts 99°
2026-05-05 02:39 21.95378 95.39269 10873 ft 367 kts 99°
2026-05-05 02:39 21.94999 95.41977 10326 ft 365 kts 99°
2026-05-05 02:39 21.94629 95.44619 10092 ft 346 kts 99°
2026-05-05 02:39 21.94282 95.47099 9904 ft 325 kts 99°
2026-05-05 02:40 21.93952 95.49451 9548 ft 312 kts 99°
2026-05-05 02:40 21.93631 95.51738 9053 ft 305 kts 99°
2026-05-05 02:40 21.93320 95.53953 8832 ft 298 kts 99°
2026-05-05 02:40 21.93004 95.56184 8708 ft 302 kts 99°
2026-05-05 02:41 21.92685 95.58433 8487 ft 306 kts 99°
2026-05-05 02:41 21.92364 95.60706 8099 ft 308 kts 99°
2026-05-05 02:41 21.92046 95.62964 7853 ft 301 kts 99°
2026-05-05 02:41 21.91734 95.65178 7499 ft 298 kts 99°
2026-05-05 02:42 21.91423 95.67379 7108 ft 296 kts 99°
2026-05-05 02:42 21.91114 95.69565 6743 ft 294 kts 100°
2026-05-05 02:42 21.90807 95.71733 6390 ft 292 kts 99°
2026-05-05 02:42 21.90500 95.73886 6024 ft 289 kts 99°
2026-05-05 02:43 21.90197 95.76018 5667 ft 287 kts 99°
2026-05-05 02:43 21.89896 95.78136 5304 ft 285 kts 99°
2026-05-05 02:43 21.89596 95.80244 4919 ft 284 kts 99°
2026-05-05 02:43 21.89298 95.82329 4591 ft 280 kts 99°
2026-05-05 02:44 21.89002 95.84398 4209 ft 278 kts 99°
2026-05-05 02:44 21.88716 95.86400 4036 ft 269 kts 98°
2026-05-05 02:44 21.88438 95.88342 3991 ft 255 kts 98°
2026-05-05 02:44 21.88177 95.90171 3988 ft 240 kts 98°
2026-05-05 02:45 21.87930 95.91892 3990 ft 225 kts 98°
2026-05-05 02:45 21.87616 95.93477 4000 ft 208 kts 114°
2026-05-05 02:45 21.86672 95.94552 3862 ft 198 kts 153°
2026-05-05 02:45 21.85369 95.95015 3583 ft 198 kts 168°
2026-05-05 02:46 21.84013 95.95270 3319 ft 198 kts 172°
2026-05-05 02:46 21.82651 95.95507 3045 ft 198 kts 170°
2026-05-05 02:46 21.81290 95.95748 2782 ft 196 kts 170°
2026-05-05 02:46 21.80007 95.95977 2668 ft 179 kts 170°
2026-05-05 02:47 21.78825 95.96187 2577 ft 166 kts 169°
2026-05-05 02:47 21.77765 95.96376 2511 ft 143 kts 169°
2026-05-05 02:47 21.76778 95.96554 2205 ft 157 kts 169°
2026-05-05 02:47 21.75661 95.96783 1547 ft 168 kts 167°
2026-05-05 02:48 21.74515 95.97015 975 ft 170 kts 170°
2026-05-05 02:48 21.73356 95.97211 527 ft 160 kts 173°
2026-05-05 02:48 21.72327 95.97367 362 ft 139 kts 172°
2026-05-05 02:48 21.71444 95.97511 286 ft 105 kts 171°
2026-05-05 02:49 21.71023 95.97582 286 ft 18 kts 172°
2026-05-05 02:49 21.70881 95.97604 287 ft 28 kts 172°
2026-05-05 02:49 21.70710 95.97602 288 ft 13 kts 228°
2026-05-05 02:49 21.70729 95.97523 289 ft 14 kts 319°
2026-05-05 02:50 21.70777 95.97482 288 ft 10 kts 321°
2026-05-05 02:50 21.70841 95.97425 291 ft 14 kts 321°
2026-05-05 02:50 21.70875 95.97382 293 ft 2 kts 273°
2026-05-05 02:50 21.70867 95.97347 288 ft 7 kts 258°
2026-05-05 02:51 21.70854 95.97280 288 ft 11 kts 258°
2026-05-05 02:51 21.70826 95.97191 288 ft 14 kts 226°
2026-05-05 02:51 21.70746 95.97183 293 ft 6 kts 169°
2026-05-05 02:51 21.70693 95.97187 294 ft 3 kts 214°
2026-05-05 02:52 21.70687 95.97161 293 ft 5 kts 254°
2026-05-05 02:52 21.70678 95.97107 292 ft 9 kts 263°
2026-05-05 02:52 21.70677 95.97096 289 ft 0 kts 262°
2026-05-05 02:53 21.70733 95.97106 289 ft 0 kts 253°